Regional Weather Roundup
Issued by NWS

Home | Current Version | Previous Version | Text Only | Print | Product List | Glossary On
Versions: 1 2 3 4 5 6 7 8 9 10 11 12 13 14 15 16 17 18 19 20 21 22 23 24 25 26 27 28 29 30 31 32 33 34 35 36 37 38 39 40 41 42 43 44 45 46 47 48 49 50
411
ASUS44 KLIX 182113
RWRLA
LOUISIANA WEATHER ROUNDUP
NATIONAL WEATHER SERVICE NEW ORLEANS LA
300 PM CST WED JAN 18 2017

NOTE: "FAIR" INDICATES FEW OR NO CLOUDS BELOW 12,000 FEET WITH NO
      SIGNIFICANT WEATHER AND/OR OBSTRUCTIONS TO VISIBILITY.
      SKY/WX - SKY CONDITION AND SIGNIFICANT WEATHER.
      TMP - AIR TEMPERATURE.    DP   - DEWPOINT TEMPERATURE.
      RH  - RELATIVE HUMIDITY.  PRES - PRESSURE.
      HX  - HEAT INDEX.         WCI  - WIND CHILL INDEX.

*  THESE STATIONS ARE NOT NWS OR FAA STATIONS AND ARE NOT UNDER
   NWS QUALITY CONTROL.

LAZ040-048-061>063-065-066-069-182200-
SOUTHEAST LOUISIANA

CITY           SKY/WX    TMP DP  RH WIND       PRES   REMARKS
N.O. AUDUBON   NOT AVBL
N.O. INTL ARPT CLOUDY    76  67  73 S14       30.04F
N.O. LAKEFRONT PTSUNNY   78  66  66 S14       30.04F
N.O. DOWNTOWN*   N/A     78  67  68 S12       30.05F
RESERVE*       CLOUDY    78  67  67 S10       30.03F
SLIDELL        CLOUDY    76  67  73 SE9       30.04F
BATON ROUGE    PTSUNNY   80  64  58 S13G24    30.00F
BOOTHVILLE     MOSUNNY   73  69  87 S8        30.07F
BELLE CHASSE   PTSUNNY   76  68  76 S14       30.04F
BOGALUSA*      MOCLDY    80  62  55 S7        30.06F
GALLIANO*      CLOUDY    74  68  80 SE8       30.05F
NEW ROADS*     CLOUDY    77  64  64 S14G20    30.00F
GONZALES*      CLOUDY    74  68  83 S3        30.02S
HAMMOND*       MOSUNNY   77  63  61 SE8       30.03F
HOUMA*         PTSUNNY   73  70  88 SE12      30.04F
PORT FOURCHON* MOCLDY    72  70  94 E10       30.05F

$$

LAZ041-044-053-054-182200-
SOUTHWEST LOUISIANA

CITY           SKY/WX    TMP DP  RH WIND       PRES   REMARKS
LAKE CHARLES   PTSUNNY   75  69  81 S14G21    29.98S
LAFAYETTE      CLOUDY    77  69  76 S14       30.00F
PATTERSON      PTSUNNY   79  69  71 S15G23    30.03F
SALT POINT     NOT AVBL
NEW IBERIA     LGT RAIN  76  68  76 S17G24    30.01F
CHENAULT AIRPK PTSUNNY   75  68  78 E17       29.98F

$$

LAZ027-028-182200-
CENTRAL LOUISIANA

CITY           SKY/WX    TMP DP  RH WIND       PRES   REMARKS
FORT POLK      CLOUDY    72  70  96 SE7       29.95F
ALEXANDRIA INT RAIN      65  65 100 NE7       29.98F FOG
ALEXANDRIA     HVY RAIN  64  64 100 N5        29.99F VSB 1/2

$$

LAZ001-002-182200-
NORTHWEST LOUISIANA

CITY           SKY/WX    TMP DP  RH WIND       PRES   REMARKS
SHREVEPORT     HVY RAIN  55  54  96 E8        30.02F FOG
BARKSDALE AFB  RAIN      53  53 100 NE10      30.01F FOG
DTN SHREVEPORT RAIN      54  52  93 NE7       30.01F FOG

$$

LAZ014-016-182200-
NORTHEAST LOUISIANA

CITY           SKY/WX    TMP DP  RH WIND       PRES   REMARKS
MONROE         LGT RAIN  57  55  93 NE6       30.03F FOG
TALLULAH       CLOUDY    69  63  81 N5        30.01F

$$





USA.gov is the U.S. government's official web portal to all federal, state and local government web resources and services.